This demonstration page uses our WeatherBlox Daily Observations layout. Learn more.

Left ArrowRight Arrow

39.08367, -84.50855

Hourly Observations for August 28, 2020

Temp ( °F °C ) Dew Point ( °F °C ) Humidity (%) Winds ( mph kmh ) Pressure ( in mb ) Visibility ( mi km ) Precip ( " mm )
12:53 am 00:53 Clear 76 24.4 74 23.3 94 94 NNE 3 6 29.94 1014 8 13 N/A
1:53 am 01:53 Clear with Light Rain 75 23.9 74 23.3 96 96 N N/A 29.94 1014 8 13 0.00 0.00
2:53 am 02:53 Clear with Mist and Fog 75 23.9 74 23.3 96 96 N N/A 29.93 1014 6 10 0.00 0.00
3:34 am 03:34 Clear with Mist and Fog 74 23.3 73 22.8 97 97 N N/A 29.91 1013 2 3 N/A
3:40 am 03:40 Clear with Mist and Fog 74 23.3 73 22.8 97 97 N N/A 29.91 1013 3 5 N/A
3:53 am 03:53 Clear 75 23.9 73 22.8 94 94 N N/A 29.91 1013 7 11 N/A
4:05 am 04:05 Clear with Mist and Fog 75 23.9 73 22.8 94 94 N N/A 29.91 1013 2 3 N/A
4:27 am 04:27 Clear with Mist and Fog 75 23.9 73 22.8 94 94 N N/A 29.90 1013 3 5 N/A
4:53 am 04:53 Clear with Mist and Fog 75 23.9 73 22.8 94 94 N N/A 29.90 1013 4 6 N/A
5:02 am 05:02 Clear with Mist and Fog 74 23.3 73 22.8 97 97 N N/A 29.90 1013 2 3 N/A
5:11 am 05:11 Clear with Mist and Fog 74 23.3 73 22.8 97 97 N N/A 29.89 1012 3 5 N/A
5:33 am 05:33 Clear with Mist and Fog 74 23.3 73 22.8 97 97 N N/A 29.89 1012 2 3 N/A
5:41 am 05:41 Clear with Mist and Fog 74 23.3 73 22.8 97 97 N N/A 29.89 1012 3 5 N/A
5:53 am 05:53 Clear 75 23.9 73 22.8 94 94 N N/A 29.89 1012 10 16 N/A
6:53 am 06:53 Clear 75 23.9 72 22.2 90 90 SW 3 6 29.90 1013 10 16 N/A
7:53 am 07:53 Sunny 75 23.9 72 22.2 90 90 N N/A 29.91 1013 10 16 N/A
8:53 am 08:53 Sunny 77 25 73 22.8 88 88 N N/A 29.91 1013 10 16 N/A
9:53 am 09:53 Sunny 80 26.7 73 22.8 79 79 S 3 6 29.91 1013 10 16 N/A
10:53 am 10:53 Mostly Sunny 84 28.9 73 22.8 70 70 SSW 12 19 29.91 1013 10 16 N/A
11:53 am 11:53 Partly Cloudy 84 28.9 73 22.8 70 70 SW 12 19 29.90 1012 10 16 N/A
12:53 pm 12:53 Cloudy 82 27.8 72 22.2 72 72 SW 13 20 29.88 1012 10 16 N/A
1:11 pm 13:11 Mostly Cloudy with Nearby Thunderstorms 84 28.9 74 23.3 72 72 WSW 12 19 29.84 1011 10 16 N/A
1:31 pm 13:31 Mostly Cloudy 85 29.4 72 22.2 65 65 SW 14 22 29.83 1010 10 16 N/A
1:53 pm 13:53 Mostly Cloudy 84 28.9 72 22.2 67 67 WSW 14 22 29.83 1010 10 16 N/A
2:44 pm 14:44 Mostly Cloudy with Thunderstorms 83 28.3 72 22.2 70 70 W 10 17 29.82 1010 10 16 0.00 0.00
2:53 pm 14:53 Mostly Cloudy with Thunderstorms 81 27.2 72 22.2 74 74 WSW 13 20 29.83 1010 5 8 0.00 0.00
2:59 pm 14:59 Mostly Cloudy with Thunderstorms 79 26.1 73 22.8 82 82 SW 21 33 29.84 1010 2 3 0.08 2.03
3:05 pm 15:05 Mostly Cloudy with Thunderstorms 77 25 73 22.8 88 88 SSW 12 19 29.83 1010 4 6 0.11 2.79
3:53 pm 15:53 Mostly Sunny 79 26.1 74 23.3 85 85 S 9 15 29.77 1008 8 13 0.14 3.56
4:53 pm 16:53 Mostly Sunny 81 27.2 74 23.3 79 79 SW 8 13 29.76 1008 10 16 N/A
5:53 pm 17:53 Partly Cloudy 80 26.7 75 23.9 85 85 S 10 17 29.78 1008 10 16 0.01 0.25
6:53 pm 18:53 Sunny 78 25.6 74 23.3 87 87 N N/A 29.76 1008 10 16 N/A
7:53 pm 19:53 Sunny 76 24.4 72 22.2 88 88 SE 3 6 29.76 1008 10 16 N/A
8:53 pm 20:53 Mostly Cloudy with Light Rain 74 23.3 71 21.7 91 91 SSW 7 11 29.76 1008 5 8 0.00 0.00
9:53 pm 21:53 Partly Cloudy with Light Rain 73 22.8 71 21.7 94 94 S 10 17 29.77 1008 8 13 0.05 1.27
10:53 pm 22:53 Clear 72 22.2 70 21.1 94 94 SSW 5 7 29.75 1008 10 16 0.02 0.51
11:53 pm 23:53 Clear 71 21.7 70 21.1 96 96 S 7 11 29.73 1007 10 16 N/A

Powered by AerisWeather